[[{"header":{"parameterUnit":"m.s-1","parameterCategory":1,"la1":30.2992,"la2":30.254,"lo1":-89.0895,"lo2":-89.0443,"dy":0.0025,"dx":0.0025,"nx":19,"ny":19,"refTime":"2026-05-04T09:00:00:Z","depth":0,"parameterNumber":2,"parameterNumberName":"U-component_of_WINDS"},"data":[0,0,0,1.6395,1.64,1.6626,1.6626,1.6911,1.6914,0,0,0,0,0,0,0,0,0,0,0,1.6323,1.6324,1.6395,1.64,1.6625,1.6627,1.6911,1.6914,0,0,0,0,0,0,0,0,0,0,0,1.6322,1.6324,1.6326,1.6401,1.6625,1.6627,1.691,1.6742,0,0,0,0,0,0,0,0,0,0,1.6524,1.645,1.6323,1.6326,1.6403,1.6625,1.6627,1.6734,1.6753,1.6806,0,1.6849,0,1.6885,1.6932,1.6933,0,0,0,1.6406,1.6435,1.6501,1.6326,1.6405,1.6625,1.6526,1.6745,1.6766,1.6831,1.6853,1.6864,1.689,1.6934,1.6935,1.7217,1.7218,0,0,1.6394,1.6361,1.6486,1.6514,1.6474,1.6518,1.6532,1.6757,1.6781,1.6854,1.6871,1.6895,1.6936,1.6938,1.7216,1.7217,0,0,0,1.6354,1.6352,1.6412,1.6502,1.6542,1.6525,1.6541,1.6771,1.6793,1.6874,1.6898,1.6937,1.6941,1.7215,1.7217,1.7235,0,0,0,1.6347,1.6329,1.6407,1.6389,1.6538,1.6659,1.6549,1.6778,1.6804,1.6897,1.6937,1.6943,1.7214,1.7216,1.7232,1.725,0,0,0,1.631,1.6325,1.6355,1.6387,1.6482,1.6656,1.6691,1.6784,1.6819,1.6933,1.6944,1.7213,1.7215,1.723,1.7246,1.7314,0,0,0,1.6262,1.637,1.6354,1.6485,1.648,1.6665,1.669,1.6831,1.6931,1.6939,1.7214,1.7216,1.7229,1.7243,1.7311,1.7366,1.7385,0,0,1.638,1.6383,1.6462,1.6455,1.6633,1.6633,1.6817,1.6941,1.6984,1.7138,1.7145,1.7233,1.7246,1.7314,1.7506,1.7521,0,0,0,1.6488,1.6544,1.6599,1.6691,1.6787,1.6872,1.6971,1.7018,1.715,1.7055,1.7278,1.7286,1.7328,1.7355,1.7368,1.7407,1.7228,1.7227,1.7227,1.6607,1.6654,1.6789,1.6863,1.6952,1.7054,1.7132,1.7213,1.7236,1.7288,1.7333,1.7444,1.7475,1.7485,1.7524,1.7366,1.7366,1.7367,1.7367,1.6784,1.6871,1.6898,1.7037,1.7088,1.7207,1.7311,1.7323,1.7444,1.7413,1.7452,1.7414,1.75,1.7537,1.7369,1.7368,1.7368,1.7368,1.7368,1.6867,1.6917,1.697,1.7108,1.7211,1.7284,1.7398,1.7441,1.7483,1.7521,1.7575,1.7575,1.758,1.7544,1.7544,1.7544,1.7545,1.7545,1.7545,1.6932,1.6991,1.708,1.7191,1.7256,1.7348,1.7452,1.7519,1.7605,1.7627,1.7628,1.7646,1.7499,1.746,1.7551,1.755,1.755,1.7549,1.7549,1.7093,1.7063,1.72,1.7265,1.74,1.75,1.7553,1.7686,1.7748,1.7803,1.7814,1.7698,1.7705,1.7695,1.7664,1.7802,1.7802,1.7802,1.7802,1.7163,1.717,1.732,1.7422,1.7527,1.7588,1.7746,1.7829,1.7911,1.7953,1.794,1.7902,1.789,1.7905,1.7891,1.7862,1.8048,1.8048,1.8049,1.7265,1.7285,1.7408,1.7484,1.7593,1.7687,1.7837,1.7956,1.8043,1.8059,1.7988,1.7977,1.7917,1.7895,1.7908,1.7885,1.7834,0,0]},{"header":{"parameterUnit":"m.s-1","parameterCategory":1,"la1":30.2992,"la2":30.254,"lo1":-89.0895,"lo2":-89.0443,"dy":0.0025,"dx":0.0025,"nx":19,"ny":19,"refTime":"2026-05-04T09:00:00:Z","depth":0,"parameterNumber":3,"parameterNumberName":"V-component_of_WINDS"},"data":[0,0,0,-0.1792,-0.1787,-0.1569,-0.1568,-0.13,-0.1298,0,0,0,0,0,0,0,0,0,0,0,-0.1865,-0.1863,-0.1792,-0.1787,-0.1569,-0.1568,-0.13,-0.1298,0,0,0,0,0,0,0,0,0,0,0,-0.1865,-0.1864,-0.1862,-0.1786,-0.1569,-0.1568,-0.1301,-0.1461,0,0,0,0,0,0,0,0,0,0,-0.1671,-0.1747,-0.1864,-0.1862,-0.1785,-0.1569,-0.1568,-0.1469,-0.1451,-0.1404,0,-0.1366,0,-0.1328,-0.1281,-0.128,0,0,0,-0.178,-0.1762,-0.1696,-0.1862,-0.1783,-0.157,-0.1665,-0.1459,-0.1439,-0.1381,-0.1362,-0.1352,-0.1323,-0.1279,-0.1278,-0.1032,-0.1031,0,0,-0.1792,-0.183,-0.1709,-0.1683,-0.172,-0.1672,-0.1659,-0.1447,-0.1428,-0.1361,-0.1345,-0.1319,-0.1277,-0.1275,-0.1033,-0.1032,0,0,0,-0.1831,-0.1838,-0.1777,-0.1695,-0.1655,-0.1666,-0.165,-0.1437,-0.1414,-0.1342,-0.1316,-0.1276,-0.1273,-0.1033,-0.1032,-0.1027,0,0,0,-0.1838,-0.1861,-0.1783,-0.1803,-0.1659,-0.1544,-0.1646,-0.1429,-0.1404,-0.1317,-0.1276,-0.127,-0.1034,-0.1033,-0.1029,-0.1017,0,0,0,-0.1876,-0.1866,-0.1837,-0.1806,-0.1714,-0.1546,-0.151,-0.1423,-0.1388,-0.1279,-0.1269,-0.1035,-0.1033,-0.1031,-0.102,-0.0962,0,0,0,-0.1927,-0.1836,-0.1838,-0.1725,-0.1716,-0.1546,-0.1511,-0.1383,-0.1289,-0.1274,-0.1034,-0.1032,-0.1031,-0.1022,-0.0964,-0.0918,-0.0903,0,0,-0.1833,-0.1826,-0.1757,-0.1752,-0.1591,-0.1576,-0.1413,-0.1291,-0.1246,-0.1106,-0.1099,-0.1028,-0.102,-0.0962,-0.081,-0.0799,0,0,0,-0.1739,-0.169,-0.1639,-0.1553,-0.1459,-0.1375,-0.1275,-0.123,-0.1109,-0.1182,-0.0991,-0.0985,-0.095,-0.0926,-0.0916,-0.0882,-0.1024,-0.1024,-0.1024,-0.1659,-0.1607,-0.1488,-0.1409,-0.1326,-0.1223,-0.1149,-0.107,-0.1042,-0.0998,-0.0955,-0.0869,-0.0843,-0.0835,-0.08,-0.0928,-0.0928,-0.0928,-0.0928,-0.1514,-0.1435,-0.14,-0.1272,-0.1216,-0.1107,-0.1005,-0.0988,-0.0877,-0.0898,-0.0864,-0.0888,-0.0824,-0.0791,-0.0927,-0.0927,-0.0928,-0.0928,-0.0928,-0.1454,-0.1407,-0.1354,-0.1222,-0.1126,-0.1049,-0.0944,-0.0898,-0.0854,-0.082,-0.0768,-0.0768,-0.076,-0.0799,-0.0799,-0.0799,-0.0798,-0.0798,-0.0798,-0.1412,-0.1352,-0.127,-0.1162,-0.1099,-0.101,-0.0906,-0.0842,-0.076,-0.0734,-0.0733,-0.0708,-0.0829,-0.0859,-0.0793,-0.0794,-0.0795,-0.0795,-0.0795,-0.128,-0.1302,-0.1176,-0.1113,-0.098,-0.0887,-0.083,-0.0704,-0.0645,-0.0594,-0.0576,-0.0674,-0.0663,-0.067,-0.0695,-0.059,-0.059,-0.059,-0.059,-0.1228,-0.1218,-0.1077,-0.0979,-0.0878,-0.0813,-0.0669,-0.0586,-0.0504,-0.0464,-0.0473,-0.0502,-0.0512,-0.0494,-0.0505,-0.0527,-0.0382,-0.0382,-0.0381,-0.1143,-0.1121,-0.1008,-0.0929,-0.0821,-0.073,-0.0592,-0.0479,-0.0391,-0.0372,-0.043,-0.0439,-0.0485,-0.0504,-0.0484,-0.0502,-0.0541,0,0]}]]